Weather History for New Orleans Lakefront, LA

Change the Weather History Date:

Wednesday, January 16, 2013

  Actual Average Record
Temperature  
Mean Temperature 43 °F 53 °F  
Max Temperature 47 °F 62 °F 80 °F (1947)
Min Temperature 39 °F 44 °F 24 °F (1972)
Degree Days  
Heating Degree Days 22 12  
Month to date heating degree days 160 192  
Since 1 July heating degree days 568 673  
Cooling Degree Days 0 1  
Month to date cooling degree days 16 11  
Year to date cooling degree days 16 11  
Moisture  
Dew Point 41 °F    
Average Humidity 93    
Maximum Humidity 100    
Minimum Humidity 85    
Precipitation  
Precipitation 0.34 in 0.16 in 3.13 in (1955)
Month to date precipitation 5.73 2.62  
Year to date precipitation 5.73 2.62  
Snow  
Snow 0.00 in - - ()
Month to date snowfall 0.0  
Since 1 July snowfall 0.0  
Snow Depth 0.00 in    
Sea Level Pressure  
Sea Level Pressure 30.06 in    
Wind  
Wind Speed 13 mph (NNW)    
Max Wind Speed 22 mph    
Max Gust Speed 25 mph    
Visibility 7 miles    
Events Fog , Rain    
T = Trace of Precipitation, MM = Missing Value Source: NWS Daily Summary

Daily Weather History Graph

Daily Weather History Graph

Search for Another Location

Airport:

Trip Planner

Search our weather history database for the weather conditions in past years. The results will help you decide how hot, cold, wet, or windy it might be!

Date:

Astronomy

Jan. 16, 2013 Rise Set
Actual Time 6:56 AM CST 5:23 PM CST
Civil Twilight 6:30 AM CST 5:49 PM CST
Nautical Twilight 6:01 AM CST 6:18 PM CST
Astronomical Twilight 5:32 AM CST 6:47 PM CST
Moon 10:00 AM CST (1/16) 10:45 PM CST (1/16)
Length of Visible Light 11h 18m
Length of Day
10h 27m
Waxing Crescent, 28% of the Moon is Illuminated
Jan 16
Waxing Crescent
Jan 18
First Quarter
Jan 26
Full
Feb 3
Last Quarter
Feb 10
New

Hourly Weather History & Observations

Time (CST) Temp. Windchill Dew Point Humidity Pressure Visibility Wind Dir Wind Speed Gust Speed Precip Events Conditions
12:01 AM 50.0 °F - 46.4 °F 87% 29.99 in 0.8 mi North 12.7 mph - N/A Fog Fog
12:08 AM 50.0 °F - 46.4 °F 87% 29.99 in 1.0 mi NNW 11.5 mph - N/A Fog Fog
12:48 AM 50.0 °F - 46.4 °F 87% 29.99 in 2.0 mi NNW 15.0 mph - N/A Fog Fog
12:53 AM 50.0 °F - 46.0 °F 86% 29.97 in 2.5 mi NNW 16.1 mph - N/A Fog Fog
1:30 AM 48.2 °F - 46.4 °F 93% 30.01 in 4.0 mi NNW 17.3 mph - N/A Fog Fog
1:53 AM 48.2 °F - 44.6 °F 87% 30.00 in 4.0 mi NNW 17.3 mph - N/A Fog Fog
2:04 AM 48.2 °F - 44.6 °F 87% 30.00 in 2.0 mi NNW 17.3 mph - 0.03 in Fog , Rain Light Rain
2:20 AM 48.2 °F - 44.6 °F 87% 30.03 in 6.0 mi NW 15.0 mph - 0.06 in Fog , Rain Light Rain
2:34 AM 48.2 °F - 44.6 °F 87% 30.00 in 9.0 mi North 17.3 mph - 0.06 in Fog Fog
2:53 AM 48.0 °F - 44.1 °F 86% 30.00 in 8.0 mi North 16.1 mph - 0.06 in Fog , Rain Light Rain
3:53 AM 48.0 °F - 43.0 °F 83% 29.97 in 4.0 mi NNW 18.4 mph - 0.06 in Fog , Rain Light Rain
4:40 AM 46.4 °F 39.5 °F 42.8 °F 87% 30.02 in 2.5 mi NNW 17.3 mph - 0.06 in Fog , Rain Rain
4:53 AM 46.9 °F - 42.1 °F 83% 29.99 in 4.0 mi NNW 18.4 mph - 0.08 in Fog , Rain Light Rain
5:53 AM 46.4 °F 39.5 °F 42.8 °F 87% 30.04 in 5.0 mi NNW 17.3 mph - N/A Fog , Rain Light Rain
6:53 AM 46.0 °F 38.3 °F 41.0 °F 83% 30.03 in 3.0 mi NNW 20.7 mph - 0.09 in Fog , Rain Rain
7:01 AM 46.4 °F 39.8 °F 41.0 °F 81% 30.06 in 2.5 mi North 16.1 mph - 0.02 in Fog , Rain Rain
7:09 AM 44.6 °F 36.4 °F 39.2 °F 81% 30.06 in 2.5 mi NNW 20.7 mph - 0.04 in Fog , Rain Rain
7:18 AM 44.6 °F 36.6 °F 41.0 °F 87% 30.06 in 3.0 mi NNW 19.6 mph - 0.05 in Fog , Rain Light Rain
7:29 AM 44.6 °F 37.2 °F 39.2 °F 81% 30.07 in 3.0 mi North 17.3 mph - 0.05 in Fog , Rain Light Rain
7:31 AM 44.6 °F 37.4 °F 39.2 °F 81% 30.07 in 2.5 mi North 16.1 mph - 0.07 in Fog , Rain Light Rain
7:44 AM 44.6 °F 37.4 °F 39.2 °F 81% 30.08 in 6.0 mi North 16.1 mph - 0.07 in Fog , Rain Light Rain
7:53 AM 45.0 °F 38.5 °F 39.9 °F 82% 30.06 in 10.0 mi North 13.8 mph - 0.07 in Fog Fog
8:53 AM 46.0 °F 39.3 °F 39.9 °F 79% 30.09 in 10.0 mi NNW 16.1 mph - N/A   Overcast
9:53 AM 46.0 °F 38.0 °F 39.9 °F 79% 30.09 in 10.0 mi NNW 21.9 mph - 0.01 in   Overcast
10:41 AM 46.4 °F 39.8 °F 39.2 °F 76% 30.11 in 10.0 mi NNW 16.1 mph - N/A   Overcast
10:53 AM 46.0 °F 39.3 °F 39.9 °F 79% 30.08 in 10.0 mi North 16.1 mph - N/A   Overcast
11:46 AM 46.4 °F 39.2 °F 39.2 °F 76% 30.09 in 10.0 mi NNW 18.4 mph - N/A   Overcast
11:53 AM 46.0 °F 38.5 °F 39.9 °F 79% 30.07 in 10.0 mi NNW 19.6 mph - N/A   Overcast
12:18 PM 46.4 °F 39.2 °F 39.2 °F 76% 30.09 in 10.0 mi NNW 18.4 mph - N/A   Overcast
12:53 PM 46.9 °F - 39.9 °F 77% 30.05 in 10.0 mi NNW 18.4 mph - N/A   Overcast
1:53 PM 46.9 °F - 39.9 °F 77% 30.03 in 10.0 mi North 13.8 mph 23.0 mph N/A   Overcast
2:53 PM 46.9 °F - 39.9 °F 77% 30.03 in 10.0 mi NNW 12.7 mph - N/A   Overcast
3:05 PM 46.4 °F 40.1 °F 39.2 °F 76% 30.06 in 10.0 mi NW 15.0 mph - N/A   Overcast
3:53 PM 46.0 °F 38.5 °F 39.9 °F 79% 30.05 in 10.0 mi WNW 19.6 mph - N/A   Overcast
4:53 PM 44.6 °F 36.9 °F 39.2 °F 81% 30.11 in 10.0 mi WNW 18.4 mph - N/A   Overcast
5:53 PM 44.1 °F 36.8 °F 37.9 °F 79% 30.10 in 10.0 mi NW 16.1 mph - N/A   Overcast
6:40 PM 44.6 °F 37.8 °F 37.4 °F 76% 30.12 in 10.0 mi NW 15.0 mph - N/A   Overcast
6:53 PM 44.1 °F 36.8 °F 37.9 °F 79% 30.11 in 10.0 mi NW 16.1 mph - N/A   Overcast
7:53 PM 44.1 °F 37.1 °F 37.0 °F 76% 30.12 in 10.0 mi WNW 15.0 mph - N/A   Overcast
8:53 PM 44.1 °F 35.9 °F 37.9 °F 79% 30.13 in 10.0 mi WNW 19.6 mph - N/A   Overcast
9:53 PM 44.1 °F 35.4 °F 37.9 °F 79% 30.12 in 10.0 mi WNW 21.9 mph - N/A   Overcast
10:13 PM 44.6 °F 36.1 °F 37.4 °F 76% 30.15 in 10.0 mi WNW 21.9 mph - N/A   Overcast
10:42 PM 44.6 °F 35.5 °F 37.4 °F 76% 30.14 in 10.0 mi WNW 25.3 mph - 0.00 in   Overcast
10:53 PM 44.1 °F 35.2 °F 37.9 °F 79% 30.13 in 10.0 mi WNW 23.0 mph - 0.00 in   Overcast
11:53 PM 44.1 °F 35.4 °F 37.9 °F 79% 30.13 in 10.0 mi WNW 21.9 mph - N/A   Overcast